OPS 4682 DEB, 18691

Orbit data source: Space-Track

OPS 4682 DEB, 18691 is space debris in LEO originally from a launch on Sat, 03 Apr 1965 UTC launched from the Air Force Western Test Range (AFWTR). Debris objects in space refer to the collection of defunct objects orbiting the Earth. Examples of debris include non-operational satellites, rocket bodies, and fragments generated from explosions, collisions, or faulty payload assembly.

Loading next visibility...
Identifier
18691, 1965-027AJ
Orbit
LEO
Last TLE update
5 hours ago
Origin
Manufacturer
Unknown
Mission
Spacecraft
Bus & Motor
Unknown
Mass
Unknown
Launch date (UTC)
1965-04-03 (60 years ago)
Launch vehicle
Unknown
Launch site
Air Force Western Test Range (AFWTR)
Object type
Payload
Rocket body
Debris
Shape & HBR
Unknown
Radar Cross Section
Small (<0.1 m²)

Expand to show TLE details & history

TLE from 5 hours ago
0 OPS 4682 DEB
1 18691U 65027AJ  25182.21049786 -.00000056  00000-0 -21877-3 0  9991
2 18691  90.2271 349.4624 0023658 312.4710 224.3655 12.96604290779674
Epoch: 2025-07-01T05:03Z
TLE epoch observation values (Epoch: 2025-07-01T05:03:07.015Z)
Latitude
3.25962°
Longitude
174.18682°
Altitude
1,290.903 km
Speed
7.205 km/s
True Right ascension
11h 17m 54s
True Declination
3° 14' 29"
Sunlit
Object was in daylight at epoch
Visualization orbit readout
Latitude
-12.46236°
Longitude
-5.77213°
Altitude
1,266.049 km
Speed
7.229 km/s
Apparent Right ascension
01h 47m 47s
Apparent Declination
-54° 27' 06"
Sunlit
Object is in daylight
Visualization observer readout
Local Sidereal Time
21:16:22
Azimuth
144.846° SSE
Elevation
-20.731°
Doppler factor
1
Orbital elements
Apogee altitude
1,290.652 km
Perigee altitude
1,254.452 km
Semi-major axis
7,650.689 km
Eccentricity
0.00237
Inclination
90.2271°
RAAN
349.4624°
Arg. of periapsis
312.471°
True anomaly
Unknown
Mean anomaly
224.3655°
Eccentric anomaly
Unknown
Mean motion
3.24334 °/min
Orbital period
111 mins
BSTAR
-0.00021877
Loading maneuver chart data...
Loading SW <> Apogee altitude chart data...
Loading historical data...
Loading historical data...
Loading historical data...
Loading historical data...
Loading historical data...
Loading historical data...
Loading historical data...

OPS 4682 DEB Visibility forecast

Observer location: undefined°, undefined°

Span
Click to sort rows by Start time (UTC) header in descending order
Start Az.
Max El. time (UTC)
Max El. Az.
Max El.
End time (UTC)
End Az.
9 mins2025-07-01 09:51:03.479Z106.003° ESE2025-07-01 09:55:03.479Z72.757° E17.183°2025-07-01 10:00:03.479Z30.73° NE
13 mins2025-07-01 11:39:03.479Z180.109° SSW2025-07-01 11:45:03.479Z243.452° WSW44.683°2025-07-01 11:52:03.479Z355.448° N
5 mins2025-07-01 13:35:03.479Z268.778° W2025-07-01 13:37:03.479Z285.35° WNW13.062°2025-07-01 13:40:03.479Z309.758° NW
13 mins2025-07-01 23:17:03.479Z8.413° NNE2025-07-01 23:23:03.479Z92.164° ESE43.755°2025-07-01 23:30:03.479Z175.35° S
9 mins2025-07-02 01:09:03.479Z325.297° NNW2025-07-02 01:13:03.479Z288.795° WNW19.79°2025-07-02 01:18:03.479Z246.35° WSW
|